This demonstration page uses our WeatherBlox Daily Observations layout. Learn more.

Left ArrowRight Arrow

44.8408, -93.29828

Hourly Observations for September 23, 2017

Temp ( °F °C ) Dew Point ( °F °C ) Humidity (%) Winds ( mph kmh ) Pressure ( in mb ) Visibility ( mi km ) Precip ( " mm )
12:53 am 00:53 Mostly Cloudy 82 27.8 69 20.6 65 65 S 8 13 29.84 1011 10 16 0.00 0.00
1:53 am 01:53 Mostly Cloudy 82 27.8 68 20 63 63 SSW 14 22 29.83 1010 10 16 0.00 0.00
2:53 am 02:53 Mostly Cloudy 81 27.2 69 20.6 67 67 SSW 12 19 29.83 1010 10 16 0.00 0.00
3:53 am 03:53 Mostly Cloudy 80 26.7 69 20.6 69 69 SSW 12 19 29.84 1011 10 16 0.00 0.00
4:53 am 04:53 Mostly Cloudy 79 26.1 69 20.6 72 72 S 5 7 29.87 1012 10 16 0.00 0.00
5:53 am 05:53 Mostly Cloudy 78 25.6 69 20.6 74 74 S 10 17 29.88 1012 10 16 0.00 0.00
6:53 am 06:53 Mostly Cloudy 74 23.3 69 20.6 85 85 SE 5 7 29.90 1013 10 16 0.00 0.00
7:53 am 07:53 Mostly Cloudy 74 23.3 69 20.6 85 85 SSE 5 7 29.93 1014 10 16 0.00 0.00
8:53 am 08:53 Partly Cloudy 77 25 69 20.6 77 77 SSW 8 13 29.95 1014 10 16 0.00 0.00
9:18 am 09:18 Mostly Cloudy 78 25.6 69 20.6 74 74 SW 8 13 29.91 1013 10 16 0.00 0.00
9:53 am 09:53 Mostly Cloudy 79 26.1 70 21.1 74 74 S 7 11 29.95 1014 10 16 0.00 0.00
10:06 am 10:06 Partly Cloudy 79 26.1 70 21.1 74 74 S 9 15 29.91 1013 10 16 0.00 0.00
10:53 am 10:53 Mostly Sunny 81 27.2 70 21.1 69 69 S 9 15 29.94 1014 10 16 0.00 0.00
11:53 am 11:53 Partly Cloudy 84 28.9 70 21.1 63 63 S 10 17 29.94 1014 10 16 0.00 0.00
12:53 pm 12:53 Mostly Cloudy 85 29.4 71 21.7 63 63 S 13 20 29.94 1014 10 16 0.00 0.00
1:53 pm 13:53 Mostly Cloudy 86 30 71 21.7 61 61 S 9 15 29.93 1014 10 16 0.00 0.00
2:53 pm 14:53 Mostly Cloudy 88 31.1 71 21.7 57 57 SSW 9 15 29.91 1013 10 16 0.00 0.00
3:53 pm 15:53 Mostly Cloudy 89 31.7 70 21.1 53 53 S 13 20 29.90 1013 10 16 0.00 0.00
4:53 pm 16:53 Mostly Cloudy 87 30.6 70 21.1 57 57 S 8 13 29.91 1013 10 16 0.00 0.00
5:53 pm 17:53 Cloudy 86 30 71 21.7 61 61 SE 6 9 29.89 1012 10 16 0.00 0.00
6:53 pm 18:53 Cloudy 84 28.9 71 21.7 65 65 SE 8 13 29.89 1012 10 16 0.00 0.00
7:53 pm 19:53 Cloudy 83 28.3 71 21.7 67 67 SE 7 11 29.89 1012 10 16 0.00 0.00
8:53 pm 20:53 Mostly Cloudy 81 27.2 71 21.7 72 72 SE 9 15 29.91 1013 10 16 0.00 0.00
9:53 pm 21:53 Mostly Cloudy 79 26.1 69 20.6 72 72 SE 8 13 29.90 1013 10 16 0.00 0.00
10:53 pm 22:53 Mostly Cloudy 80 26.7 67 19.4 64 64 S 9 15 29.91 1013 10 16 0.00 0.00
11:53 pm 23:53 Mostly Cloudy 79 26.1 66 18.9 65 65 S 6 9 29.92 1013 10 16 0.00 0.00

Powered by AerisWeather